Location: Street
(51.1247°N, 2.7429°W)
Time: 07:59:03
(UTC+00:00)

Tiros 1 - Pass Details

Date: 30 November 2020
Orbit: 630 x 663 km, 48.4° (Epoch: 28 January)

Event Time Altitude Azimuth Distance (km) Brightness Sun altitude
Rises 17:16:15 0° 258° (WSW) 2,992 12.6 -10.3°
Reaches altitude 10° 17:18:38 10° 255° (WSW) 2,078 11.3 -10.6°
Maximum altitude 17:23:22 63° 175° (S) 737 7.5 -11.3°
Enters shadow 17:27:27 14° 97° (E) 1,827 8.9 -11.9°
Drops below altitude 10° 17:28:05 10° 95° (E) 2,065 - -12.0°
Sets 17:30:26 0° 93° (E) 2,971 - -12.4°
